STARLINK-35871 (66566 NORAD) Tracking and Keplerian Element Data

This shows tracking and keplerian element data for the satellite.

Feedback or suggestion? Click here.




ElementValue
Catalog66566
NameSTARLINK-35871
Epoch Orbit574
Epoch Day353.93341597
Epoch Year2025
RAAN79.0887
Inclination43.0009
Eccentricity0.0007967
Argument of Perigee183.1047
Mean Anonmoly176.9765
Mean Motion15.50860434
Decay Rate0.00099611
L11 66566U 25268K 25353.93341597 .00099611 00000+0 16637-2 0 9991
L22 66566 43.0009 79.0887 0007967 183.1047 176.9765 15.50860434 5742



Live tracking and technical data element details for STARLINK-35871 (NORAD 66566). STARLINK-35871 can be tracked NOW for your location showing map with azimuth and elevation plus other details from your city location.







IsCatalogInMostPopularTable: catalog: 66566, numindb: 13
Update: records affected: 1



GetName: 66566 STARLINK-35871

Hit Count: updated at: Mon, 20 Apr 2026 10:50:58 GMT